Snowfall_Accumulation
0.0 0.0 0.0 0.0 0.0 0.0 0.0 0.0 0.0 0.0 0.0 0.0 0.0 0.0 0.0 0.0 0.0 0.0 0.0 0.0 0.0 0.0 0.0 0.0 0.0 0.0 0.0 0.0 0.0 0.0 0.0 0.0 0.0 0.2 0.0 0.0 0.0 0.0 0.0 0.0 0.0 0.0 0.1 0.1 0.3 0.6 0.0 0.0 0.0 0.0 0.0 0.0 0.0 0.0
0.0 0.0 0.0 0.0 0.0 0.0 0.0 0.0 0.0 0.0 0.0 0.0 0.0 0.0 0.0 0.0 0.0 0.0 0.0 0.0 0.0 0.0 0.0 0.0 0.0 0.0 0.0 0.0 0.0 0.0 0.0 0.0 0.0 0.0 0.0 0.0 0.0 0.0 0.0 0.0 0.0 0.0 0.0 0.0 0.0 0.0 0.0 0.0 0.0 0.0 0.0 0.0 0.0 0.0
0.0 0.0 0.0 0.0 0.0 0.0 0.0 0.0 0.0 0.0 0.0 0.0 0.0 0.0 0.0 0.0 0.0 0.0 0.0 0.0 0.0 0.1 0.0 0.0 0.0 0.0 0.0 0.0 0.0 0.0 0.0 0.0 0.0 0.0 0.0 0.0 0.0 0.0 0.0 0.0 0.0 0.0 0.0 0.0 0.0 0.0 0.0 0.0 0.0 0.0 0.0 0.0 0.0 0.0
0.0 0.0 0.0 0.0 0.0 0.0 0.0 0.0 0.0 0.0 0.0 0.0 0.0 0.0 0.0 0.0 0.0 0.0 0.0 0.0 0.0 0.1 0.8 0.1 0.0 0.0 0.0 0.0 0.0 0.0 0.0 0.0 0.0 0.0 0.0 0.0 0.0 0.0 0.0 0.0 0.0 0.0 0.0 0.0 0.0 0.0 0.0 0.0 0.0 0.0 0.0 0.0 0.0 0.0
0.0 0.0 0.0 0.0 0.0 0.0 0.0 0.0 0.0 0.0 0.0 0.0 0.0 0.0 0.0 0.0 0.0 0.0 0.0 0.0 0.0 0.1 1.6 0.2 0.0 0.0 0.0 0.0 0.0 0.0 0.0 0.0 0.2 0.1 0.6 0.3 0.0 0.0 0.0 0.0 0.0 0.0 0.0 0.0 0.0 0.0 0.0 0.0 0.0 0.0 0.0 0.0 0.0 0.0
0.0 0.0 0.0 0.0 0.0 0.0 0.0 0.0 0.0 0.0 0.0 0.0 0.0 0.0 0.0 0.0 0.0 0.0 0.0 0.0 0.0 0.0 2.0 1.7 0.0 0.0 0.0 0.0 0.0 0.0 0.0 0.0 0.0 0.4 1.1 0.0 0.0 0.0 0.4 0.0 0.0 0.0 0.0 0.0 0.0 0.0 0.0 0.0 0.0 0.0 0.0 0.0 0.0 0.0
0.0 0.0 0.0 0.0 0.0 0.0 0.0 0.0 0.0 0.0 0.0 0.0 0.0 0.0 0.0 0.0 0.0 0.0 0.0 0.0 0.0 0.0 0.8 3.6 3.3 0.0 0.0 0.0 0.0 0.0 0.0 0.0 0.4 1.2 0.8 0.0 0.0 0.7 0.8 0.2 0.0 0.0 0.0 0.0 0.0 0.0 0.0 0.0 0.0 0.0 0.0 0.0 0.0 0.0
0.0 0.0 0.0 0.0 0.0 0.0 0.0 0.0 0.0 0.0 0.0 0.0 0.0 0.0 0.0 0.0 0.0 0.0 0.0 0.0 0.0 0.0 1.8 9.6 6.7 1.5 0.0 0.2 0.0 0.0 0.0 0.0 0.1 0.4 0.0 0.0 0.0 0.9 1.1 0.0 0.0 0.0 0.0 0.0 0.0 0.0 0.0 0.0 0.0 0.0 0.0 0.0 0.0 0.0
0.0 0.0 0.0 0.0 0.0 0.0 0.0 0.0 0.0 0.0 0.0 0.0 0.0 0.0 0.0 0.0 0.0 0.0 0.0 0.0 0.0 0.0 6.1 5.6 7.1 4.0 0.0 0.0 0.0 0.1 0.0 2.3 0.0 0.7 0.0 0.0 0.4 2.5 0.0 0.1 0.1 0.0 0.1 0.0 0.0 0.0 0.0 0.0 0.0 0.0 0.0 0.0 0.0 0.0
0.0 0.0 0.0 0.0 0.0 0.0 0.0 0.0 0.0 0.0 0.0 0.0 0.0 0.0 0.3 0.0 0.0 0.0 0.0 0.3 2.2 1.6 2.2 5.2 2.8 5.4 1.2 1.6 0.7 0.7 0.7 1.4 3.0 0.0 0.0 0.5 0.0 0.0 0.0 0.0 0.0 0.0 0.0 0.1 0.0 1.8 0.9 0.7 0.0 0.0 0.0 0.0 0.0 0.0
0.0 0.0 0.0 0.0 0.0 0.0 0.0 0.0 0.0 0.0 0.0 0.0 0.0 0.0 0.0 0.0 0.0 0.0 3.4 4.4 2.0 2.0 1.2 1.8 2.8 3.0 0.0 3.6 2.1 0.1 4.1 1.6 3.6 3.1 0.9 1.9 1.4 0.6 0.0 0.1 0.0 0.0 0.0 0.0 0.0 0.0 0.2 0.7 1.0 0.4 0.2 0.1 0.0 0.0
0.0 0.0 0.0 0.0 0.0 0.0 0.0 0.0 0.0 0.0 0.0 0.0 0.0 0.0 0.0 0.3 2.4 4.1 4.5 2.4 0.9 0.8 0.6 1.5 0.7 0.3 0.3 0.0 1.3 0.9 2.9 2.4 3.8 3.1 3.5 2.9 0.7 0.1 0.5 0.6 0.3 0.0 0.0 0.1 0.0 0.0 0.2 0.0 0.5 0.8 0.4 0.8 0.9 0.8
0.0 0.0 0.0 0.0 0.0 0.0 0.0 0.0 0.0 0.0 0.0 0.0 0.0 0.6 0.5 0.9 2.6 3.7 3.6 2.2 0.4 0.5 0.6 0.6 0.8 0.0 0.0 0.0 0.3 1.0 1.5 0.8 0.9 4.0 4.2 1.5 0.1 0.1 0.0 0.1 0.3 1.4 1.4 0.7 0.4 0.3 0.4 0.4 0.2 0.6 0.6 0.4 0.6 0.4
0.0 0.0 0.0 0.0 0.0 0.0 0.0 0.0 0.0 0.0 0.0 0.0 3.0 2.6 0.9 1.0 1.4 1.1 1.1 0.9 0.2 0.1 0.0 0.0 0.3 0.6 0.1 0.7 0.6 1.5 0.1 0.4 3.1 2.2 1.9 0.1 0.1 0.0 0.0 0.0 0.0 0.0 0.6 1.2 2.0 1.4 1.3 1.5 1.0 1.1 0.7 0.3 0.0 0.0
0.0 0.0 0.0 0.0 0.0 0.0 0.0 0.0 0.0 0.0 0.0 4.8 3.9 1.5 0.0 0.0 0.1 0.1 0.0 0.1 0.0 0.0 0.1 0.0 0.0 0.1 0.6 1.1 0.2 0.8 1.0 3.6 4.2 2.6 1.2 0.5 0.2 0.0 0.0 0.1 0.0 0.0 0.0 0.0 0.2 0.5 1.7 1.6 2.0 1.4 0.7 0.6 0.1 0.0
0.0 0.0 0.0 0.0 0.0 0.0 0.0 0.0 0.0 0.0 4.2 6.0 4.8 0.6 0.0 0.0 0.0 0.0 0.0 0.0 0.0 0.0 0.2 0.3 0.5 0.9 0.4 1.4 1.2 0.4 1.3 2.5 2.8 1.0 0.0 0.0 0.0 0.0 0.1 0.0 0.1 0.0 0.0 0.0 0.0 0.0 0.4 0.5 1.1 1.1 0.2 0.5 0.5 0.0
0.0 0.0 0.0 0.0 0.0 0.0 0.0 0.0 0.0 10.8 9.5 8.5 2.2 0.0 0.0 0.0 0.0 0.0 0.0 0.0 0.0 0.4 1.7 2.0 3.2 0.1 0.6 1.5 0.7 0.1 0.2 0.2 0.2 0.0 0.0 0.0 0.0 0.0 0.3 0.0 0.0 0.0 0.0 0.0 0.2 0.2 0.7 0.3 1.3 1.9 1.2 0.5 0.5 0.7
0.0 0.0 0.0 0.0 0.0 0.0 0.0 0.0 3.6 15.8 15.4 2.3 0.1 0.1 0.1 0.0 0.0 0.0 0.0 0.0 0.0 0.1 1.7 5.3 3.3 3.4 1.3 0.2 0.0 0.1 0.0 0.0 0.0 0.0 0.0 0.0 0.0 0.0 0.3 0.0 0.0 0.1 0.7 1.7 1.7 1.7 1.4 1.3 1.7 1.4 0.3 0.5 0.7 0.7
0.0 0.0 0.0 0.0 0.0 0.0 13.1 12.2 9.5 15.3 3.5 0.4 0.1 0.0 0.0 0.0 0.0 0.0 0.1 0.1 0.0 0.1 0.9 5.0 6.6 2.1 0.0 0.0 0.0 0.0 0.0 0.0 0.0 0.0 0.0 0.0 0.0 0.0 0.1 0.6 0.6 0.0 0.4 1.2 0.8 1.0 0.6 0.2 0.0 0.5 0.6 0.2 0.7 0.4
0.0 0.0 0.0 0.0 0.0 9.6 22.5 16.5 7.0 5.1 2.1 0.1 0.0 0.0 0.0 0.0 0.1 0.0 0.1 0.1 0.4 0.7 5.9 6.4 0.0 0.1 0.1 0.4 0.5 0.4 0.0 0.0 0.0 0.0 0.0 0.0 0.0 0.0 0.0 0.0 0.0 0.2 0.0 0.4 0.3 0.1 0.6 0.3 0.1 0.6 0.5 0.3 0.7 0.6
0.0 0.0 0.0 0.0 0.9 14.0 15.4 12.5 4.9 1.9 0.4 0.2 0.0 0.0 0.0 0.0 0.1 0.1 0.2 0.2 4.1 6.5 2.5 0.2 0.0 0.0 0.4 0.4 0.2 0.4 0.1 0.1 0.0 0.0 0.0 0.0 0.0 0.0 0.0 0.0 0.0 0.1 0.0 0.0 0.1 0.0 0.3 0.2 0.1 0.0 0.4 0.2 0.1 0.9
0.2 0.0 3.8 2.4 22.7 24.9 18.6 7.5 3.6 1.0 0.5 0.4 0.3 0.1 0.5 0.1 0.0 0.0 0.2 2.6 4.4 0.4 0.2 0.3 0.0 0.0 0.0 0.0 0.6 0.4 0.5 0.0 0.1 0.0 0.0 0.0 0.0 0.0 0.0 0.0 0.0 0.0 0.0 0.0 0.0 0.0 0.0 0.0 0.2 0.0 0.4 0.4 0.1 1.1
0.0 1.4 25.2 26.0 30.6 29.3 16.8 4.2 2.3 1.1 0.9 0.6 1.1 2.0 0.9 0.1 0.1 0.0 1.0 0.4 0.0 0.0 0.0 0.0 0.0 1.0 1.4 1.2 1.4 1.1 0.6 0.1 0.0 0.0 0.1 0.0 0.0 0.0 0.0 0.0 0.0 0.0 0.0 0.0 0.0 0.0 0.0 0.0 0.0 0.0 0.0 0.5 0.2 0.1
0.0 26.3 38.1 39.6 26.0 22.9 12.3 10.3 6.1 2.5 2.9 1.6 1.5 1.1 0.5 0.0 0.4 1.0 1.1 0.0 0.0 0.0 0.0 0.0 0.0 0.0 0.0 0.8 1.2 1.9 2.3 1.6 0.5 0.0 0.6 0.3 0.0 0.0 0.0 0.0 0.0 0.0 0.0 0.0 0.0 0.0 0.0 0.0 0.0 0.0 0.0 0.0 0.0 0.1
51.9 64.6 42.8 42.9 22.1 13.1 7.3 5.3 3.3 2.8 1.4 1.2 0.4 0.3 0.2 0.7 1.6 2.1 0.5 0.0 0.0 0.0 0.0 0.0 0.0 0.0 0.0 0.0 0.7 0.9 1.1 1.5 2.5 2.5 0.3 1.7 0.8 0.2 0.0 0.0 0.2 0.1 0.0 0.0 0.0 0.0 0.0 0.0 0.0 0.0 0.0 0.0 0.1 0.2
63.6 35.1 25.3 10.0 5.6 1.9 0.7 0.5 0.6 0.4 0.0 0.5 0.4 0.0 0.0 1.7 3.8 2.2 0.1 0.0 0.0 0.0 0.0 0.0 0.0 0.0 0.0 0.0 0.0 0.9 1.1 1.2 1.0 1.6 0.3 2.0 1.8 2.4 1.9 1.5 0.9 0.4 0.0 0.0 0.3 0.3 0.1 0.0 0.0 0.0 0.0 0.1 0.0 0.4
50.9 28.0 9.8 1.5 0.5 0.7 0.3 0.1 0.1 0.5 0.7 0.9 0.1 0.2 0.1 4.2 0.5 0.0 0.0 0.0 0.0 0.0 0.0 0.0 0.0 0.0 0.0 0.0 0.0 0.0 0.9 1.3 1.2 0.5 0.3 1.6 1.3 0.9 0.6 1.8 1.4 0.9 0.6 1.1 1.0 0.9 0.9 0.5 0.3 0.2 0.5 0.3 0.3 0.3
14.3 5.0 1.0 0.8 0.5 0.2 0.3 0.3 0.4 0.2 0.8 0.2 1.2 1.9 3.3 2.1 0.6 0.0 0.0 0.0 0.0 0.0 0.0 0.0 0.0 0.0 0.0 0.0 0.0 0.6 0.9 1.2 1.2 0.8 1.7 1.8 1.5 1.2 1.0 1.1 2.3 2.4 2.3 1.7 1.2 1.7 1.9 1.5 1.4 1.7 1.4 0.7 0.9 0.7
3.0 0.5 0.0 0.3 0.3 0.2 0.5 0.3 0.5 0.2 0.1 0.0 0.2 0.2 0.0 0.0 0.0 0.0 0.0 0.0 0.0 0.0 0.0 0.0 0.0 0.0 0.0 0.0 0.0 0.6 0.8 1.3 1.9 1.8 1.3 1.3 1.6 1.8 1.8 3.2 3.9 5.0 4.9 4.5 3.0 2.5 2.3 2.4 3.5 3.3 2.9 2.9 2.4 2.6
0.5 0.0 0.0 0.0 0.6 0.6 0.1 0.1 0.0 0.2 0.2 0.0 0.0 0.2 0.1 0.0 0.0 0.0 0.0 0.0 0.0 0.0 0.0 0.0 0.0 0.0 0.0 0.0 0.0 0.9 0.7 0.7 1.4 1.5 1.5 1.3 1.4 1.7 3.1 3.7 4.9 5.5 5.8 5.2 6.4 7.2 5.0 5.8 6.7 7.1 6.6 6.1 5.6 4.8
0.0 0.0 0.1 0.2 0.3 0.5 0.5 0.3 0.2 0.0 0.2 0.1 0.2 0.2 0.1 0.1 0.0 0.0 0.0 0.0 0.0 0.0 0.0 0.0 0.0 0.2 0.3 0.6 0.9 1.2 1.1 1.1 1.2 2.0 2.1 2.5 2.3 3.1 3.0 4.6 4.8 5.7 6.3 6.5 6.1 5.8 5.3 5.0 4.4 4.3 4.8 4.4 4.2 3.7
0.0 0.1 0.0 0.5 0.8 1.6 1.4 0.7 0.3 0.0 0.2 0.2 0.1 0.1 0.1 0.0 0.0 0.0 0.0 0.0 0.0 0.0 0.0 0.0 0.5 0.8 0.9 1.2 1.6 1.8 2.5 2.8 1.8 2.7 2.6 2.7 3.1 2.8 4.2 4.9 5.8 6.1 7.0 7.1 6.3 5.9 5.7 5.5 6.2 5.9 6.3 6.4 6.1 5.4
2.1 1.0 0.7 0.4 2.2 2.1 1.7 1.0 1.0 0.8 0.7 0.4 0.1 0.1 0.0 0.0 0.0 0.0 0.0 0.0 0.0 0.0 0.0 0.8 1.0 1.3 2.2 2.6 2.4 3.5 3.7 3.2 4.3 4.2 4.7 4.6 4.2 4.7 6.0 6.0 6.6 6.7 6.7 6.7 7.2 7.8 8.1 7.7 7.3 6.8 6.5 6.2 6.1 6.0